Time,TemperatureF,DewpointF,PressureIn,WindDirection,WindDirectionDegrees,WindSpeedMPH,WindSpeedGustMPH,Humidity,HourlyPrecipIn,Conditions,Clouds,dailyrainin,SoftwareType,DateUTC
2013-05-01 00:01:00,41.0,35.0,30.43,North,-999,-999.0,-999.0,78,-99.99,,,-99.99,,2013-05-01 07:01:00,
2013-05-01 00:11:00,41.0,35.0,30.43,North,-999,-999.0,-999.0,78,-99.99,,,-99.99,,2013-05-01 07:11:00,
2013-05-01 00:21:00,41.0,36.0,30.44,North,-999,-999.0,-999.0,82,-99.99,,,-99.99,,2013-05-01 07:21:00,
2013-05-01 00:32:00,41.0,36.0,30.44,North,-999,-999.0,-999.0,82,-99.99,,,-99.99,,2013-05-01 07:32:00,
2013-05-01 00:41:00,41.0,36.0,30.44,North,-999,-999.0,-999.0,82,-99.99,,,-99.99,,2013-05-01 07:41:00,
2013-05-01 00:52:00,41.0,37.0,30.45,North,-999,-999.0,-999.0,85,-99.99,,,-99.99,,2013-05-01 07:52:00,
2013-05-01 01:01:00,41.0,37.0,30.45,North,-999,-999.0,-999.0,85,-99.99,,,-99.99,,2013-05-01 08:01:00,
2013-05-01 01:11:00,41.0,37.0,30.45,North,-999,-999.0,-999.0,85,-99.99,,,-99.99,,2013-05-01 08:11:00,
2013-05-01 01:21:00,40.0,37.0,30.46,North,-999,-999.0,-999.0,88,-99.99,,,-99.99,,2013-05-01 08:21:00,
2013-05-01 01:31:00,40.0,37.0,30.46,North,-999,-999.0,-999.0,88,-99.99,,,-99.99,,2013-05-01 08:31:00,
2013-05-01 01:42:00,40.0,37.0,30.46,North,-999,-999.0,-999.0,88,-99.99,,,-99.99,,2013-05-01 08:42:00,
2013-05-01 01:52:00,40.0,37.0,30.47,North,-999,-999.0,-999.0,90,-99.99,,,-99.99,,2013-05-01 08:52:00,
2013-05-01 02:01:00,40.0,37.0,30.47,North,-999,-999.0,-999.0,90,-99.99,,,-99.99,,2013-05-01 09:01:00,
2013-05-01 02:11:00,40.0,37.0,30.47,North,-999,-999.0,-999.0,90,-99.99,,,-99.99,,2013-05-01 09:11:00,
2013-05-01 02:21:00,39.0,37.0,30.47,North,-999,-999.0,-999.0,91,-99.99,,,-99.99,,2013-05-01 09:21:00,
2013-05-01 02:33:00,39.0,37.0,30.47,North,-999,-999.0,-999.0,91,-99.99,,,-99.99,,2013-05-01 09:33:00,
2013-05-01 02:42:00,39.0,37.0,30.47,North,-999,-999.0,-999.0,91,-99.99,,,-99.99,,2013-05-01 09:42:00,
2013-05-01 02:52:00,39.0,37.0,30.48,North,-999,-999.0,-999.0,91,-99.99,,,-99.99,,2013-05-01 09:52:00,
2013-05-01 03:02:00,39.0,37.0,30.48,North,-999,-999.0,-999.0,91,-99.99,,,-99.99,,2013-05-01 10:02:00,
2013-05-01 03:12:00,39.0,37.0,30.48,North,-999,-999.0,-999.0,91,-99.99,,,-99.99,,2013-05-01 10:12:00,
2013-05-01 03:22:00,39.0,37.0,30.48,North,-999,-999.0,-999.0,92,-99.99,,,-99.99,,2013-05-01 10:22:00,
2013-05-01 03:33:00,39.0,37.0,30.48,North,-999,-999.0,-999.0,92,-99.99,,,-99.99,,2013-05-01 10:33:00,
2013-05-01 03:42:00,39.0,37.0,30.48,North,-999,-999.0,-999.0,92,-99.99,,,-99.99,,2013-05-01 10:42:00,
2013-05-01 03:52:00,38.0,37.0,30.48,North,-999,-999.0,-999.0,92,-99.99,,,-99.99,,2013-05-01 10:52:00,
2013-05-01 04:02:00,38.0,37.0,30.48,North,-999,-999.0,-999.0,92,-99.99,,,-99.99,,2013-05-01 11:02:00,
2013-05-01 04:11:00,38.0,37.0,30.48,North,-999,-999.0,-999.0,92,-99.99,,,-99.99,,2013-05-01 11:11:00,
2013-05-01 04:22:00,39.0,37.0,30.49,North,-999,-999.0,-999.0,93,-99.99,,,-99.99,,2013-05-01 11:22:00,
2013-05-01 04:32:00,39.0,37.0,30.49,North,-999,-999.0,-999.0,93,-99.99,,,-99.99,,2013-05-01 11:32:00,
2013-05-01 04:42:00,39.0,37.0,30.49,North,-999,-999.0,-999.0,93,-99.99,,,-99.99,,2013-05-01 11:42:00,
2013-05-01 04:51:00,38.0,37.0,30.50,North,-999,-999.0,-999.0,93,-99.99,,,-99.99,,2013-05-01 11:51:00,
2013-05-01 05:01:00,38.0,37.0,30.50,North,-999,-999.0,-999.0,93,-99.99,,,-99.99,,2013-05-01 12:01:00,
2013-05-01 05:11:00,38.0,37.0,30.50,North,-999,-999.0,-999.0,93,-99.99,,,-99.99,,2013-05-01 12:11:00,
2013-05-01 05:21:00,38.0,36.0,30.51,North,-999,-999.0,-999.0,94,-99.99,,,-99.99,,2013-05-01 12:21:00,
2013-05-01 05:31:00,38.0,36.0,30.51,North,-999,-999.0,-999.0,94,-99.99,,,-99.99,,2013-05-01 12:31:00,
2013-05-01 05:41:00,38.0,36.0,30.51,North,-999,-999.0,-999.0,94,-99.99,,,-99.99,,2013-05-01 12:41:00,
2013-05-01 05:51:00,38.0,37.0,30.52,North,-999,-999.0,-999.0,95,-99.99,,,-99.99,,2013-05-01 12:51:00,
2013-05-01 06:01:00,38.0,37.0,30.52,North,-999,-999.0,-999.0,95,-99.99,,,-99.99,,2013-05-01 13:01:00,
2013-05-01 06:11:00,38.0,37.0,30.52,North,-999,-999.0,-999.0,95,-99.99,,,-99.99,,2013-05-01 13:11:00,
2013-05-01 06:21:00,38.0,37.0,30.53,North,-999,-999.0,-999.0,95,-99.99,,,-99.99,,2013-05-01 13:21:00,
2013-05-01 06:31:00,38.0,37.0,30.53,North,-999,-999.0,-999.0,95,-99.99,,,-99.99,,2013-05-01 13:31:00,
2013-05-01 06:42:00,38.0,37.0,30.53,North,-999,-999.0,-999.0,95,-99.99,,,-99.99,,2013-05-01 13:42:00,
2013-05-01 06:52:00,38.0,37.0,30.54,North,-999,-999.0,-999.0,96,-99.99,,,-99.99,,2013-05-01 13:52:00,
2013-05-01 07:02:00,38.0,37.0,30.54,North,-999,-999.0,-999.0,96,-99.99,,,-99.99,,2013-05-01 14:02:00,
2013-05-01 07:11:00,38.0,37.0,30.54,North,-999,-999.0,-999.0,96,-99.99,,,-99.99,,2013-05-01 14:11:00,
2013-05-01 07:21:00,39.0,38.0,30.55,North,-999,-999.0,-999.0,96,-99.99,,,-99.99,,2013-05-01 14:21:00,
2013-05-01 07:31:00,39.0,38.0,30.55,North,-999,-999.0,-999.0,96,-99.99,,,-99.99,,2013-05-01 14:31:00,
2013-05-01 07:41:00,39.0,38.0,30.55,North,-999,-999.0,-999.0,96,-99.99,,,-99.99,,2013-05-01 14:41:00,
2013-05-01 07:51:00,39.0,38.0,30.55,North,-999,-999.0,-999.0,96,-99.99,,,-99.99,,2013-05-01 14:51:00,
2013-05-01 08:21:00,46.0,45.0,30.57,North,-999,-999.0,-999.0,95,-99.99,,,-99.99,,2013-05-01 15:21:00,
2013-05-01 08:33:00,46.0,45.0,30.57,North,-999,-999.0,-999.0,95,-99.99,,,-99.99,,2013-05-01 15:33:00,
2013-05-01 08:42:00,46.0,45.0,30.57,North,-999,-999.0,-999.0,95,-99.99,,,-99.99,,2013-05-01 15:42:00,
2013-05-01 08:53:00,48.0,46.0,30.57,North,-999,-999.0,-999.0,93,-99.99,,,-99.99,,2013-05-01 15:53:00,
2013-05-01 09:03:00,48.0,46.0,30.57,North,-999,-999.0,-999.0,93,-99.99,,,-99.99,,2013-05-01 16:03:00,
2013-05-01 09:12:00,48.0,46.0,30.57,North,-999,-999.0,-999.0,93,-99.99,,,-99.99,,2013-05-01 16:12:00,
2013-05-01 09:22:00,49.0,45.0,30.58,North,-999,-999.0,-999.0,87,-99.99,,,-99.99,,2013-05-01 16:22:00,
2013-05-01 09:31:00,49.0,45.0,30.58,North,-999,-999.0,-999.0,87,-99.99,,,-99.99,,2013-05-01 16:31:00,
2013-05-01 09:42:00,49.0,45.0,30.58,North,-999,-999.0,-999.0,87,-99.99,,,-99.99,,2013-05-01 16:42:00,
2013-05-01 09:53:00,48.0,44.0,30.59,North,-999,-999.0,-999.0,83,-99.99,,,-99.99,,2013-05-01 16:53:00,
2013-05-01 10:02:00,48.0,44.0,30.59,North,-999,-999.0,-999.0,83,-99.99,,,-99.99,,2013-05-01 17:02:00,
2013-05-01 10:12:00,48.0,44.0,30.59,North,-999,-999.0,-999.0,83,-99.99,,,-99.99,,2013-05-01 17:12:00,
2013-05-01 10:21:00,49.0,42.0,30.59,North,-999,-999.0,-999.0,77,-99.99,,,-99.99,,2013-05-01 17:21:00,
2013-05-01 10:31:00,49.0,42.0,30.59,North,-999,-999.0,-999.0,77,-99.99,,,-99.99,,2013-05-01 17:31:00,
2013-05-01 10:42:00,49.0,42.0,30.59,North,-999,-999.0,-999.0,77,-99.99,,,-99.99,,2013-05-01 17:42:00,
2013-05-01 10:52:00,52.0,43.0,30.60,North,-999,-999.0,-999.0,71,-99.99,,,-99.99,,2013-05-01 17:52:00,
2013-05-01 11:01:00,52.0,43.0,30.60,North,-999,-999.0,-999.0,71,-99.99,,,-99.99,,2013-05-01 18:01:00,
2013-05-01 11:11:00,52.0,43.0,30.60,North,-999,-999.0,-999.0,71,-99.99,,,-99.99,,2013-05-01 18:11:00,
2013-05-01 11:22:00,50.0,39.0,30.60,North,-999,-999.0,-999.0,65,-99.99,,,-99.99,,2013-05-01 18:22:00,
2013-05-01 11:32:00,50.0,39.0,30.60,North,-999,-999.0,-999.0,65,-99.99,,,-99.99,,2013-05-01 18:32:00,
2013-05-01 11:41:00,50.0,39.0,30.60,North,-999,-999.0,-999.0,65,-99.99,,,-99.99,,2013-05-01 18:41:00,
2013-05-01 11:52:00,51.0,40.0,30.59,North,-999,-999.0,-999.0,66,-99.99,,,-99.99,,2013-05-01 18:52:00,
2013-05-01 12:01:00,51.0,40.0,30.59,North,-999,-999.0,-999.0,66,-99.99,,,-99.99,,2013-05-01 19:01:00,
2013-05-01 12:11:00,51.0,40.0,30.59,North,-999,-999.0,-999.0,66,-99.99,,,-99.99,,2013-05-01 19:11:00,
2013-05-01 12:22:00,53.0,42.0,30.59,North,-999,-999.0,-999.0,65,-99.99,,,-99.99,,2013-05-01 19:22:00,
2013-05-01 12:32:00,53.0,42.0,30.59,North,-999,-999.0,-999.0,65,-99.99,,,-99.99,,2013-05-01 19:32:00,
2013-05-01 12:42:00,53.0,42.0,30.59,North,-999,-999.0,-999.0,65,-99.99,,,-99.99,,2013-05-01 19:42:00,
2013-05-01 12:52:00,53.0,41.0,30.60,North,-999,-999.0,-999.0,63,-99.99,,,-99.99,,2013-05-01 19:52:00,
2013-05-01 13:01:00,53.0,41.0,30.60,North,-999,-999.0,-999.0,63,-99.99,,,-99.99,,2013-05-01 20:01:00,
2013-05-01 13:11:00,53.0,41.0,30.60,North,-999,-999.0,-999.0,63,-99.99,,,-99.99,,2013-05-01 20:11:00,
2013-05-01 13:21:00,54.0,42.0,30.60,North,-999,-999.0,-999.0,62,-99.99,,,-99.99,,2013-05-01 20:21:00,
2013-05-01 13:32:00,54.0,42.0,30.60,North,-999,-999.0,-999.0,62,-99.99,,,-99.99,,2013-05-01 20:32:00,
2013-05-01 13:42:00,54.0,42.0,30.60,North,-999,-999.0,-999.0,62,-99.99,,,-99.99,,2013-05-01 20:42:00,
2013-05-01 13:52:00,55.0,42.0,30.60,North,-999,-999.0,-999.0,59,-99.99,,,-99.99,,2013-05-01 20:52:00,
2013-05-01 14:01:00,55.0,42.0,30.60,North,-999,-999.0,-999.0,59,-99.99,,,-99.99,,2013-05-01 21:01:00,
2013-05-01 14:11:00,55.0,42.0,30.60,North,-999,-999.0,-999.0,59,-99.99,,,-99.99,,2013-05-01 21:11:00,
2013-05-01 14:21:00,56.0,42.0,30.59,North,-999,-999.0,-999.0,58,-99.99,,,-99.99,,2013-05-01 21:21:00,
2013-05-01 14:32:00,56.0,42.0,30.59,North,-999,-999.0,-999.0,58,-99.99,,,-99.99,,2013-05-01 21:32:00,
2013-05-01 14:43:00,56.0,42.0,30.59,North,-999,-999.0,-999.0,58,-99.99,,,-99.99,,2013-05-01 21:43:00,
2013-05-01 14:52:00,57.0,41.0,30.60,North,-999,-999.0,-999.0,54,-99.99,,,-99.99,,2013-05-01 21:52:00,
2013-05-01 15:03:00,57.0,41.0,30.60,North,-999,-999.0,-999.0,54,-99.99,,,-99.99,,2013-05-01 22:03:00,
2013-05-01 15:12:00,57.0,41.0,30.60,North,-999,-999.0,-999.0,54,-99.99,,,-99.99,,2013-05-01 22:12:00,
2013-05-01 15:22:00,58.0,42.0,30.59,North,-999,-999.0,-999.0,55,-99.99,,,-99.99,,2013-05-01 22:22:00,
2013-05-01 15:33:00,58.0,42.0,30.59,North,-999,-999.0,-999.0,55,-99.99,,,-99.99,,2013-05-01 22:33:00,
2013-05-01 15:42:00,58.0,42.0,30.59,North,-999,-999.0,-999.0,55,-99.99,,,-99.99,,2013-05-01 22:42:00,
2013-05-01 15:52:00,61.0,41.0,30.59,North,-999,-999.0,-999.0,48,-99.99,,,-99.99,,2013-05-01 22:52:00,
2013-05-01 16:02:00,61.0,41.0,30.59,North,-999,-999.0,-999.0,48,-99.99,,,-99.99,,2013-05-01 23:02:00,
2013-05-01 16:11:00,61.0,41.0,30.59,North,-999,-999.0,-999.0,48,-99.99,,,-99.99,,2013-05-01 23:11:00,
2013-05-01 16:21:00,59.0,38.0,30.58,North,-999,-999.0,-999.0,46,-99.99,,,-99.99,,2013-05-01 23:21:00,
2013-05-01 16:32:00,59.0,38.0,30.58,North,-999,-999.0,-999.0,46,-99.99,,,-99.99,,2013-05-01 23:32:00,
2013-05-01 16:42:00,59.0,38.0,30.58,North,-999,-999.0,-999.0,46,-99.99,,,-99.99,,2013-05-01 23:42:00,
2013-05-01 16:52:00,59.0,38.0,30.57,North,-999,-999.0,-999.0,45,-99.99,,,-99.99,,2013-05-01 23:52:00,
2013-05-01 17:01:00,59.0,38.0,30.57,North,-999,-999.0,-999.0,45,-99.99,,,-99.99,,2013-05-02 00:01:00,
2013-05-01 17:11:00,59.0,38.0,30.57,North,-999,-999.0,-999.0,45,-99.99,,,-99.99,,2013-05-02 00:11:00,
2013-05-01 17:21:00,59.0,38.0,30.57,North,-999,-999.0,-999.0,45,-99.99,,,-99.99,,2013-05-02 00:21:00,
2013-05-01 17:52:00,59.0,38.0,30.56,North,-999,-999.0,-999.0,45,-99.99,,,-99.99,,2013-05-02 00:52:00,
2013-05-01 18:01:00,59.0,38.0,30.56,North,-999,-999.0,-999.0,45,-99.99,,,-99.99,,2013-05-02 01:01:00,
2013-05-01 18:11:00,59.0,38.0,30.56,North,-999,-999.0,-999.0,45,-99.99,,,-99.99,,2013-05-02 01:11:00,
2013-05-01 18:21:00,60.0,36.0,30.56,North,-999,-999.0,-999.0,41,-99.99,,,-99.99,,2013-05-02 01:21:00,
2013-05-01 18:32:00,60.0,36.0,30.56,North,-999,-999.0,-999.0,41,-99.99,,,-99.99,,2013-05-02 01:32:00,
2013-05-01 18:42:00,60.0,36.0,30.56,North,-999,-999.0,-999.0,41,-99.99,,,-99.99,,2013-05-02 01:42:00,
2013-05-01 18:52:00,59.0,35.0,30.56,North,-999,-999.0,-999.0,39,-99.99,,,-99.99,,2013-05-02 01:52:00,
2013-05-01 19:01:00,59.0,35.0,30.56,North,-999,-999.0,-999.0,39,-99.99,,,-99.99,,2013-05-02 02:01:00,
2013-05-01 19:11:00,59.0,35.0,30.56,North,-999,-999.0,-999.0,39,-99.99,,,-99.99,,2013-05-02 02:11:00,
2013-05-01 19:21:00,59.0,32.0,30.55,North,-999,-999.0,-999.0,37,-99.99,,,-99.99,,2013-05-02 02:21:00,
2013-05-01 19:32:00,59.0,32.0,30.55,North,-999,-999.0,-999.0,37,-99.99,,,-99.99,,2013-05-02 02:32:00,
2013-05-01 19:42:00,59.0,32.0,30.55,North,-999,-999.0,-999.0,37,-99.99,,,-99.99,,2013-05-02 02:42:00,
2013-05-01 19:51:00,59.0,32.0,30.55,North,-999,-999.0,-999.0,37,-99.99,,,-99.99,,2013-05-02 02:51:00,
2013-05-01 20:01:00,57.0,31.0,30.55,North,-999,-999.0,-999.0,37,-99.99,,,-99.99,,2013-05-02 03:01:00,
2013-05-01 20:11:00,57.0,31.0,30.55,North,-999,-999.0,-999.0,37,-99.99,,,-99.99,,2013-05-02 03:11:00,
2013-05-01 20:22:00,54.0,30.0,30.55,North,-999,-999.0,-999.0,39,-99.99,,,-99.99,,2013-05-02 03:22:00,
2013-05-01 20:32:00,54.0,30.0,30.55,North,-999,-999.0,-999.0,39,-99.99,,,-99.99,,2013-05-02 03:32:00,
2013-05-01 20:42:00,54.0,30.0,30.55,North,-999,-999.0,-999.0,39,-99.99,,,-99.99,,2013-05-02 03:42:00,
2013-05-01 20:52:00,52.0,32.0,30.56,North,-999,-999.0,-999.0,46,-99.99,,,-99.99,,2013-05-02 03:52:00,
2013-05-01 21:03:00,52.0,32.0,30.56,North,-999,-999.0,-999.0,46,-99.99,,,-99.99,,2013-05-02 04:03:00,
2013-05-01 21:12:00,52.0,32.0,30.56,North,-999,-999.0,-999.0,46,-99.99,,,-99.99,,2013-05-02 04:12:00,
2013-05-01 21:22:00,49.0,35.0,30.56,North,-999,-999.0,-999.0,57,-99.99,,,-99.99,,2013-05-02 04:22:00,
2013-05-01 21:33:00,49.0,35.0,30.56,North,-999,-999.0,-999.0,57,-99.99,,,-99.99,,2013-05-02 04:33:00,
2013-05-01 21:42:00,49.0,35.0,30.56,North,-999,-999.0,-999.0,57,-99.99,,,-99.99,,2013-05-02 04:42:00,
2013-05-01 21:52:00,48.0,35.0,30.57,North,-999,-999.0,-999.0,61,-99.99,,,-99.99,,2013-05-02 04:52:00,
2013-05-01 22:02:00,48.0,35.0,30.57,North,-999,-999.0,-999.0,61,-99.99,,,-99.99,,2013-05-02 05:02:00,
2013-05-01 22:12:00,48.0,35.0,30.57,North,-999,-999.0,-999.0,61,-99.99,,,-99.99,,2013-05-02 05:12:00,
2013-05-01 22:22:00,47.0,35.0,30.57,North,-999,-999.0,-999.0,61,-99.99,,,-99.99,,2013-05-02 05:22:00,
2013-05-01 22:32:00,47.0,35.0,30.57,North,-999,-999.0,-999.0,61,-99.99,,,-99.99,,2013-05-02 05:32:00,
2013-05-01 22:42:00,47.0,35.0,30.57,North,-999,-999.0,-999.0,61,-99.99,,,-99.99,,2013-05-02 05:42:00,
2013-05-01 22:51:00,47.0,36.0,30.57,North,-999,-999.0,-999.0,65,-99.99,,,-99.99,,2013-05-02 05:51:00,
2013-05-01 23:01:00,47.0,36.0,30.57,North,-999,-999.0,-999.0,65,-99.99,,,-99.99,,2013-05-02 06:01:00,
2013-05-01 23:12:00,47.0,36.0,30.57,North,-999,-999.0,-999.0,65,-99.99,,,-99.99,,2013-05-02 06:12:00,
2013-05-01 23:21:00,46.0,36.0,30.57,North,-999,-999.0,-999.0,68,-99.99,,,-99.99,,2013-05-02 06:21:00,
2013-05-01 23:31:00,46.0,36.0,30.57,North,-999,-999.0,-999.0,68,-99.99,,,-99.99,,2013-05-02 06:31:00,
2013-05-01 23:42:00,46.0,36.0,30.57,North,-999,-999.0,-999.0,68,-99.99,,,-99.99,,2013-05-02 06:42:00,
2013-05-01 23:52:00,45.0,35.0,30.57,North,-999,-999.0,-999.0,67,-99.99,,,-99.99,,2013-05-02 06:52:00,